| time (UTC) | temp F | wind direction | speed MPH | gust MPH | rain 1hr in | rain 24hr in | rain mn in | humidity % | barometer mb |
| 20260903113100 | 78 | 199 | 0.0 | 0.0 | 0.00 | 0.00 | 0.00 | 100 | 1016.0 |
| 20260903112602 | 78 | 199 | 0.0 | 0.0 | 0.00 | 0.00 | 0.00 | 100 | 1015.9 |
| 20260903112100 | 78 | 199 | 0.0 | 0.0 | 0.00 | 0.00 | 0.00 | 100 | 1015.8 |
| 20260903111100 | 78 | 199 | 0.0 | 0.0 | 0.00 | 0.00 | 0.00 | 100 | 1015.7 |
| 20260903110559 | 78 | 199 | 0.0 | 0.0 | 0.00 | 0.00 | 0.00 | 100 | 1015.6 |
| 20260903110059 | 78 | 199 | 0.0 | 0.0 | 0.00 | 0.00 | 0.00 | 100 | 1015.6 |
| 20260903105558 | 78 | 199 | 0.0 | 0.0 | 0.00 | 0.00 | 0.00 | 100 | 1015.6 |
| 20260903105057 | 78 | 199 | 0.0 | 0.0 | 0.00 | 0.00 | 0.00 | 100 | 1015.4 |
| 20260903104558 | 78 | 199 | 0.0 | 0.0 | 0.00 | 0.00 | 0.00 | 100 | 1015.4 |
| 20260903104056 | 78 | 199 | 0.0 | 0.0 | 0.00 | 0.00 | 0.00 | 100 | 1015.3 |
| 20260903103556 | 78 | 199 | 0.0 | 0.0 | 0.00 | 0.00 | 0.00 | 100 | 1015.3 |
| 20260903103056 | 78 | 199 | 0.0 | 0.0 | 0.00 | 0.00 | 0.00 | 100 | 1015.3 |
| 20260903102557 | 78 | 199 | 0.0 | 0.0 | 0.00 | 0.00 | 0.00 | 100 | 1015.2 |
| 20260903102059 | 78 | 199 | 0.0 | 0.0 | 0.00 | 0.00 | 0.00 | 100 | 1015.3 |
| 20260903101556 | 78 | 199 | 0.0 | 0.0 | 0.00 | 0.00 | 0.00 | 100 | 1015.4 |
| 20260903101056 | 78 | 199 | 0.0 | 0.0 | 0.00 | 0.00 | 0.00 | 100 | 1015.3 |
| 20260903100555 | 78 | 199 | 0.0 | 0.0 | 0.00 | 0.00 | 0.00 | 100 | 1015.2 |
| 20260903100059 | 78 | 199 | 0.0 | 0.0 | 0.00 | 0.00 | 0.00 | 100 | 1015.1 |
| 20260903095555 | 78 | 199 | 0.0 | 0.0 | 0.00 | 0.00 | 0.00 | 100 | 1015.2 |
| 20260903095055 | 78 | 199 | 0.0 | 0.0 | 0.00 | 0.00 | 0.00 | 100 | 1015.1 |
| 20260903094601 | 78 | 199 | 0.0 | 0.0 | 0.00 | 0.00 | 0.00 | 100 | 1015.1 |
| 20260903094055 | 78 | 199 | 0.0 | 0.0 | 0.00 | 0.00 | 0.00 | 100 | 1015.0 |
| 20260903093555 | 78 | 199 | 0.0 | 0.0 | 0.00 | 0.00 | 0.00 | 100 | 1015.0 |
| 20260903093117 | 78 | 199 | 0.0 | 0.0 | 0.00 | 0.00 | 0.00 | 100 | 1014.9 |
| 20260903092553 | 78 | 199 | 0.0 | 0.0 | 0.00 | 0.00 | 0.00 | 100 | 1014.8 |
| 20260903092053 | 78 | 199 | 0.0 | 0.0 | 0.00 | 0.00 | 0.00 | 100 | 1014.8 |
| 20260903091553 | 78 | 199 | 0.0 | 0.0 | 0.00 | 0.00 | 0.00 | 100 | 1015.0 |
| 20260903091054 | 78 | 199 | 0.0 | 0.0 | 0.00 | 0.00 | 0.00 | 100 | 1015.0 |
| 20260903090552 | 78 | 199 | 0.0 | 0.0 | 0.00 | 0.00 | 0.00 | 100 | 1014.9 |
| 20260903090053 | 78 | 199 | 0.0 | 0.0 | 0.00 | 0.00 | 0.00 | 100 | 1014.9 |
| 20260903085552 | 78 | 199 | 0.0 | 0.0 | 0.00 | 0.00 | 0.00 | 100 | 1014.9 |
| 20260903085050 | 78 | 198 | 0.0 | 0.0 | 0.00 | 0.00 | 0.00 | 100 | 1014.9 |
| 20260903084550 | 78 | 198 | 0.0 | 0.0 | 0.00 | 0.00 | 0.00 | 100 | 1014.8 |
| 20260903084050 | 79 | 198 | 0.0 | 1.0 | 0.00 | 0.00 | 0.00 | 100 | 1014.9 |
| 20260903083549 | 79 | 198 | 0.0 | 1.0 | 0.00 | 0.00 | 0.00 | 100 | 1014.9 |
| 20260903083048 | 79 | 198 | 0.0 | 2.0 | 0.00 | 0.00 | 0.00 | 100 | 1014.9 |
| 20260903082552 | 79 | 198 | 0.0 | 3.0 | 0.00 | 0.00 | 0.00 | 100 | 1014.7 |
| 20260903082048 | 79 | 199 | 1.0 | 3.0 | 0.00 | 0.00 | 0.00 | 100 | 1014.7 |
| 20260903081549 | 79 | 189 | 0.0 | 0.0 | 0.00 | 0.00 | 0.00 | 100 | 1014.7 |
| 20260903081049 | 79 | 178 | 0.0 | 0.0 | 0.00 | 0.00 | 0.00 | 100 | 1014.7 |
| 20260903080548 | 79 | 178 | 0.0 | 3.0 | 0.00 | 0.00 | 0.00 | 100 | 1014.7 |
| 20260903080057 | 79 | 178 | 0.0 | 3.0 | 0.00 | 0.00 | 0.00 | 100 | 1014.7 |
| 20260903075546 | 79 | 184 | 0.0 | 3.0 | 0.00 | 0.00 | 0.00 | 100 | 1014.7 |
| 20260903075048 | 79 | 175 | 0.0 | 1.0 | 0.00 | 0.00 | 0.00 | 100 | 1014.8 |
| 20260903074601 | 79 | 174 | 0.0 | 0.0 | 0.00 | 0.00 | 0.00 | 100 | 1014.7 |
| 20260903074045 | 79 | 174 | 0.0 | 0.0 | 0.00 | 0.00 | 0.00 | 100 | 1014.7 |
| 20260903073547 | 79 | 173 | 0.0 | 2.0 | 0.00 | 0.00 | 0.00 | 100 | 1014.8 |
| 20260903073054 | 79 | 172 | 0.0 | 4.0 | 0.00 | 0.00 | 0.00 | 100 | 1014.7 |
| 20260903072544 | 80 | 176 | 1.0 | 4.0 | 0.00 | 0.00 | 0.00 | 100 | 1014.8 |
| 20260903072044 | 80 | 177 | 1.0 | 4.0 | 0.00 | 0.00 | 0.00 | 100 | 1014.8 |
| 20260903071544 | 80 | 180 | 2.0 | 4.0 | 0.00 | 0.00 | 0.00 | 100 | 1014.9 |
| 20260903071042 | 80 | 180 | 1.0 | 4.0 | 0.00 | 0.00 | 0.00 | 100 | 1014.9 |
| 20260903070546 | 80 | 189 | 1.0 | 4.0 | 0.00 | 0.00 | 0.00 | 100 | 1014.8 |
| 20260903070042 | 81 | 196 | 1.0 | 4.0 | 0.00 | 0.00 | 0.00 | 100 | 1014.9 |
| 20260903065541 | 81 | 166 | 2.0 | 6.0 | 0.00 | 0.00 | 0.00 | 100 | 1015.0 |
| 20260903065042 | 81 | 157 | 1.0 | 6.0 | 0.00 | 0.00 | 0.00 | 100 | 1015.0 |
| 20260903064543 | 81 | 148 | 2.0 | 6.0 | 0.00 | 0.00 | 0.00 | 100 | 1015.0 |
| 20260903064041 | 81 | 138 | 1.0 | 7.0 | 0.00 | 0.00 | 0.00 | 100 | 1014.9 |
| 20260903063540 | 81 | 146 | 1.0 | 8.0 | 0.00 | 0.00 | 0.00 | 100 | 1014.8 |
| 20260903063040 | 82 | 108 | 2.0 | 7.0 | 0.00 | 0.00 | 0.00 | 100 | 1014.9 |
| 20260903062537 | 82 | 145 | 1.0 | 4.0 | 0.00 | 0.00 | 0.00 | 100 | 1014.9 |
| 20260903062038 | 82 | 90 | 1.0 | 7.0 | 0.00 | 0.00 | 0.00 | 100 | 1015.1 |
| 20260903061543 | 82 | 93 | 0.0 | 3.0 | 0.00 | 0.00 | 0.00 | 100 | 1015.2 |
| 20260903061036 | 82 | 92 | 0.0 | 3.0 | 0.00 | 0.00 | 0.00 | 100 | 1015.1 |
| 20260903060540 | 82 | 121 | 0.0 | 3.0 | 0.00 | 0.00 | 0.00 | 100 | 1015.2 |
| 20260903060036 | 82 | 125 | 1.0 | 3.0 | 0.00 | 0.00 | 0.00 | 100 | 1015.0 |
| 20260903055536 | 82 | 126 | 1.0 | 3.0 | 0.00 | 0.00 | 0.00 | 100 | 1015.1 |
| 20260903055035 | 81 | 126 | 0.0 | 3.0 | 0.00 | 0.00 | 0.00 | 100 | 1015.4 |
| 20260903054533 | 81 | 139 | 0.0 | 0.0 | 0.00 | 0.00 | 0.00 | 100 | 1015.5 |
| 20260903054035 | 81 | 142 | 0.0 | 3.0 | 0.00 | 0.00 | 0.00 | 100 | 1015.7 |
| 20260903053532 | 81 | 142 | 1.0 | 5.0 | 0.00 | 0.00 | 0.00 | 100 | 1015.7 |
| 20260903053033 | 81 | 143 | 1.0 | 5.0 | 0.00 | 0.00 | 0.00 | 100 | 1015.7 |
| 20260903052534 | 82 | 137 | 2.0 | 5.0 | 0.00 | 0.00 | 0.00 | 100 | 1015.7 |
| 20260903052031 | 82 | 142 | 1.0 | 3.0 | 0.00 | 0.00 | 0.00 | 100 | 1015.8 |
| 20260903051530 | 82 | 143 | 0.0 | 0.0 | 0.00 | 0.00 | 0.00 | 100 | 1016.0 |
| 20260903051030 | 82 | 143 | 0.0 | 0.0 | 0.00 | 0.00 | 0.00 | 100 | 1016.1 |
| 20260903050529 | 82 | 143 | 0.0 | 0.0 | 0.00 | 0.00 | 0.00 | 100 | 1016.1 |
| 20260903050032 | 81 | 143 | 0.0 | 0.0 | 0.00 | 0.00 | 0.00 | 100 | 1016.0 |
| 20260903045529 | 82 | 143 | 0.0 | 2.0 | 0.00 | 0.00 | 0.00 | 100 | 1016.1 |
| 20260903045028 | 82 | 143 | 0.0 | 0.0 | 0.00 | 0.00 | 0.00 | 100 | 1016.1 |
| 20260903044527 | 82 | 143 | 0.0 | 0.0 | 0.00 | 0.00 | 0.00 | 100 | 1016.1 |
| 20260903044027 | 82 | 143 | 0.0 | 2.0 | 0.00 | 0.00 | 0.00 | 100 | 1016.2 |
| 20260903043533 | 82 | 143 | 0.0 | 3.0 | 0.00 | 0.00 | 0.00 | 100 | 1016.4 |
| 20260903043026 | 82 | 143 | 1.0 | 3.0 | 0.00 | 0.00 | 0.00 | 100 | 1016.5 |
| 20260903042525 | 82 | 143 | 0.0 | 3.0 | 0.00 | 0.00 | 0.00 | 100 | 1016.6 |
| 20260903042025 | 82 | 143 | 0.0 | 1.0 | 0.00 | 0.00 | 0.00 | 100 | 1016.7 |
| 20260903041531 | 82 | 143 | 0.0 | 3.0 | 0.00 | 0.00 | 0.00 | 100 | 1016.7 |
| 20260903041025 | 82 | 143 | 1.0 | 3.0 | 0.00 | 0.00 | 0.00 | 100 | 1016.7 |
| 20260903040524 | 82 | 142 | 0.0 | 4.0 | 0.00 | 0.00 | 0.00 | 100 | 1016.6 |
| 20260903040025 | 82 | 142 | 1.0 | 5.0 | 0.00 | 0.00 | 0.00 | 100 | 1016.7 |
| 20260903035523 | 82 | 142 | 0.0 | 5.0 | 0.00 | 0.00 | 0.00 | 100 | 1016.8 |
| 20260903035022 | 82 | 167 | 0.0 | 4.0 | 0.00 | 0.00 | 0.00 | 100 | 1016.9 |
| 20260903034526 | 82 | 169 | 2.0 | 4.0 | 0.00 | 0.00 | 0.00 | 100 | 1016.9 |
| 20260903034021 | 82 | 147 | 1.0 | 5.0 | 0.00 | 0.00 | 0.00 | 100 | 1017.1 |
| 20260903033521 | 82 | 146 | 2.0 | 5.0 | 0.00 | 0.00 | 0.00 | 100 | 1016.9 |
| 20260903033036 | 82 | 144 | 2.0 | 5.0 | 0.00 | 0.00 | 0.00 | 100 | 1017.0 |
| 20260903032524 | 82 | 103 | 1.0 | 4.0 | 0.00 | 0.00 | 0.00 | 100 | 1017.0 |
| 20260903032022 | 82 | 131 | 0.0 | 2.0 | 0.00 | 0.00 | 0.00 | 100 | 1016.9 |
| 20260903031521 | 82 | 130 | 0.0 | 3.0 | 0.00 | 0.00 | 0.00 | 100 | 1017.0 |
| 20260903031023 | 82 | 130 | 1.0 | 3.0 | 0.00 | 0.00 | 0.00 | 100 | 1017.0 |
| 20260903030521 | 82 | 116 | 0.0 | 4.0 | 0.00 | 0.00 | 0.00 | 100 | 1016.8 |
| 20260903030021 | 82 | 116 | 0.0 | 4.0 | 0.00 | 0.00 | 0.00 | 100 | 1016.9 |
| 20260903025523 | 82 | 117 | 1.0 | 4.0 | 0.00 | 0.00 | 0.00 | 100 | 1016.8 |
| 20260903025022 | 82 | 117 | 0.0 | 3.0 | 0.00 | 0.00 | 0.00 | 100 | 1016.8 |
| 20260903024520 | 82 | 127 | 1.0 | 4.0 | 0.00 | 0.00 | 0.00 | 100 | 1016.8 |
| 20260903024019 | 82 | 115 | 1.0 | 4.0 | 0.00 | 0.00 | 0.00 | 100 | 1016.6 |
| 20260903023523 | 82 | 119 | 1.0 | 6.0 | 0.00 | 0.00 | 0.00 | 100 | 1016.7 |
| 20260903023020 | 82 | 115 | 1.0 | 6.0 | 0.00 | 0.00 | 0.00 | 100 | 1016.7 |
| 20260903022520 | 82 | 111 | 1.0 | 4.0 | 0.00 | 0.00 | 0.00 | 100 | 1016.7 |
| 20260903022018 | 82 | 118 | 2.0 | 4.0 | 0.00 | 0.00 | 0.00 | 100 | 1016.6 |
| 20260903021519 | 82 | 116 | 1.0 | 4.0 | 0.00 | 0.00 | 0.00 | 100 | 1016.6 |
| 20260903021019 | 82 | 103 | 2.0 | 6.0 | 0.00 | 0.00 | 0.00 | 100 | 1016.6 |
| 20260903020518 | 82 | 103 | 1.0 | 6.0 | 0.00 | 0.00 | 0.00 | 100 | 1016.6 |
| 20260903020018 | 82 | 145 | 1.0 | 4.0 | 0.00 | 0.00 | 0.00 | 100 | 1016.6 |
| 20260903015519 | 82 | 117 | 1.0 | 4.0 | 0.00 | 0.00 | 0.00 | 100 | 1016.7 |
| 20260903015017 | 82 | 117 | 1.0 | 4.0 | 0.00 | 0.00 | 0.00 | 100 | 1016.7 |
| 20260903014518 | 82 | 113 | 1.0 | 4.0 | 0.00 | 0.00 | 0.00 | 100 | 1016.6 |
| 20260903014022 | 82 | 120 | 1.0 | 6.0 | 0.00 | 0.00 | 0.00 | 100 | 1016.6 |
| 20260903013517 | 82 | 110 | 1.0 | 7.0 | 0.00 | 0.00 | 0.00 | 100 | 1016.7 |
| 20260903013022 | 82 | 82 | 2.0 | 7.0 | 0.00 | 0.00 | 0.00 | 100 | 1016.6 |
| 20260903012517 | 82 | 130 | 1.0 | 6.0 | 0.00 | 0.00 | 0.00 | 100 | 1016.5 |
| 20260903012017 | 82 | 128 | 2.0 | 6.0 | 0.00 | 0.00 | 0.00 | 100 | 1016.4 |
| 20260903011517 | 82 | 134 | 2.0 | 7.0 | 0.00 | 0.00 | 0.00 | 100 | 1016.5 |
| 20260903011017 | 82 | 124 | 2.0 | 7.0 | 0.00 | 0.00 | 0.00 | 100 | 1016.4 |
| 20260903010516 | 82 | 144 | 0.0 | 7.0 | 0.00 | 0.00 | 0.00 | 100 | 1016.3 |
| 20260903010016 | 82 | 127 | 1.0 | 8.0 | 0.00 | 0.00 | 0.00 | 100 | 1016.1 |
| 20260903005516 | 82 | 110 | 2.0 | 7.0 | 0.00 | 0.00 | 0.00 | 100 | 1016.1 |
| 20260903005015 | 82 | 119 | 2.0 | 6.0 | 0.00 | 0.00 | 0.00 | 100 | 1016.0 |
| 20260903004530 | 82 | 118 | 1.0 | 5.0 | 0.00 | 0.00 | 0.00 | 100 | 1016.0 |
| 20260903004018 | 82 | 104 | 1.0 | 6.0 | 0.00 | 0.00 | 0.00 | 100 | 1016.0 |
| 20260903003516 | 82 | 97 | 1.0 | 3.0 | 0.00 | 0.00 | 0.00 | 100 | 1016.0 |
| 20260903003016 | 82 | 110 | 0.0 | 7.0 | 0.00 | 0.00 | 0.00 | 100 | 1016.0 |
| 20260903002515 | 82 | 86 | 1.0 | 7.0 | 0.00 | 0.00 | 0.00 | 100 | 1015.8 |
| 20260903002015 | 82 | 83 | 1.0 | 4.0 | 0.00 | 0.00 | 0.00 | 100 | 1015.7 |
| 20260903001514 | 82 | 115 | 1.0 | 7.0 | 0.00 | 0.00 | 0.00 | 100 | 1015.6 |
| 20260903001014 | 82 | 103 | 1.0 | 7.0 | 0.00 | 0.00 | 0.00 | 100 | 1015.7 |
| 20260903000514 | 82 | 113 | 1.0 | 6.0 | 0.00 | 0.00 | 0.00 | 100 | 1015.6 |
| 20260903000016 | 82 | 101 | 0.0 | 6.0 | 0.00 | 0.00 | 0.00 | 100 | 1015.6 |
| 20260902235514 | 82 | 132 | 1.0 | 7.0 | 0.00 | 0.00 | 0.00 | 100 | 1015.6 |
| 20260902235013 | 82 | 98 | 2.0 | 9.0 | 0.00 | 0.00 | 0.00 | 100 | 1015.6 |
| 20260902234513 | 82 | 124 | 3.0 | 9.0 | 0.00 | 0.00 | 0.00 | 100 | 1015.5 |
| 20260902234013 | 82 | 107 | 2.0 | 7.0 | 0.00 | 0.00 | 0.00 | 100 | 1015.4 |
| 20260902233513 | 82 | 119 | 0.0 | 8.0 | 0.00 | 0.00 | 0.00 | 100 | 1015.4 |
| 20260902233013 | 82 | 136 | 4.0 | 8.0 | 0.00 | 0.00 | 0.00 | 100 | 1015.5 |
| 20260902232514 | 82 | 161 | 3.0 | 8.0 | 0.00 | 0.00 | 0.00 | 100 | 1015.5 |
| 20260902232012 | 82 | 93 | 2.0 | 8.0 | 0.00 | 0.00 | 0.00 | 100 | 1015.4 |
| 20260902231514 | 82 | 106 | 1.0 | 6.0 | 0.00 | 0.00 | 0.00 | 100 | 1015.4 |
| 20260902231018 | 82 | 111 | 2.0 | 6.0 | 0.00 | 0.00 | 0.00 | 100 | 1015.4 |
| 20260902230517 | 82 | 131 | 2.0 | 9.0 | 0.00 | 0.00 | 0.00 | 100 | 1015.3 |
| 20260902230011 | 83 | 149 | 3.0 | 9.0 | 0.00 | 0.00 | 0.00 | 100 | 1015.3 |
| 20260902225512 | 82 | 129 | 2.0 | 10.0 | 0.00 | 0.00 | 0.00 | 100 | 1015.4 |
| 20260902225012 | 82 | 96 | 4.0 | 10.0 | 0.00 | 0.00 | 0.00 | 100 | 1015.3 |
| 20260902224511 | 82 | 139 | 4.0 | 7.0 | 0.00 | 0.00 | 0.00 | 100 | 1015.3 |
| 20260902224010 | 83 | 135 | 2.0 | 5.0 | 0.00 | 0.00 | 0.00 | 100 | 1015.3 |
| 20260902223518 | 83 | 128 | 2.0 | 6.0 | 0.00 | 0.00 | 0.00 | 100 | 1015.3 |
| 20260902223010 | 83 | 101 | 1.0 | 8.0 | 0.00 | 0.00 | 0.00 | 100 | 1015.3 |
| 20260902222511 | 83 | 67 | 3.0 | 8.0 | 0.00 | 0.00 | 0.00 | 100 | 1015.4 |
| 20260902222010 | 83 | 111 | 2.0 | 6.0 | 0.00 | 0.00 | 0.00 | 100 | 1015.3 |
| 20260902221509 | 83 | 111 | 2.0 | 4.0 | 0.00 | 0.00 | 0.00 | 100 | 1015.3 |
| 20260902221010 | 83 | 116 | 0.0 | 3.0 | 0.00 | 0.00 | 0.00 | 100 | 1015.3 |
| 20260902220509 | 83 | 113 | 0.0 | 6.0 | 0.00 | 0.00 | 0.00 | 100 | 1015.4 |
| 20260902220009 | 83 | 111 | 0.0 | 6.0 | 0.00 | 0.00 | 0.00 | 100 | 1015.4 |
| 20260902215508 | 83 | 117 | 1.0 | 4.0 | 0.00 | 0.00 | 0.00 | 100 | 1015.5 |
| 20260902215008 | 83 | 107 | 1.0 | 5.0 | 0.00 | 0.00 | 0.00 | 100 | 1015.5 |
| 20260902214509 | 83 | 109 | 1.0 | 6.0 | 0.00 | 0.00 | 0.00 | 100 | 1015.5 |
| 20260902214008 | 83 | 118 | 2.0 | 6.0 | 0.00 | 0.00 | 0.00 | 100 | 1015.5 |
| 20260902213508 | 83 | 130 | 1.0 | 7.0 | 0.00 | 0.00 | 0.00 | 100 | 1015.5 |
| 20260902213022 | 83 | 119 | 2.0 | 7.0 | 0.00 | 0.00 | 0.00 | 100 | 1015.5 |
| 20260902212508 | 83 | 110 | 2.0 | 7.0 | 0.00 | 0.00 | 0.00 | 100 | 1015.5 |
| 20260902212007 | 83 | 152 | 3.0 | 7.0 | 0.00 | 0.00 | 0.00 | 100 | 1015.4 |
| 20260902211507 | 83 | 146 | 2.0 | 7.0 | 0.00 | 0.00 | 0.00 | 100 | 1015.4 |
| 20260902211006 | 84 | 124 | 2.0 | 8.0 | 0.00 | 0.00 | 0.00 | 100 | 1015.3 |
| 20260902210506 | 84 | 117 | 4.0 | 8.0 | 0.00 | 0.00 | 0.00 | 100 | 1015.4 |
| 20260902210014 | 84 | 109 | 2.0 | 7.0 | 0.00 | 0.00 | 0.00 | 100 | 1015.4 |
| 20260902205505 | 84 | 148 | 1.0 | 8.0 | 0.00 | 0.00 | 0.00 | 100 | 1015.5 |
| 20260902205007 | 84 | 153 | 3.0 | 7.0 | 0.00 | 0.00 | 0.00 | 100 | 1015.5 |
| 20260902204505 | 84 | 122 | 2.0 | 8.0 | 0.00 | 0.00 | 0.00 | 100 | 1015.7 |
| 20260902204005 | 85 | 106 | 2.0 | 8.0 | 0.00 | 0.00 | 0.00 | 100 | 1015.7 |
| 20260902203505 | 85 | 121 | 4.0 | 8.0 | 0.00 | 0.00 | 0.00 | 100 | 1015.7 |
| 20260902203005 | 85 | 153 | 4.0 | 8.0 | 0.00 | 0.00 | 0.00 | 100 | 1015.7 |
| 20260902202504 | 85 | 116 | 3.0 | 9.0 | 0.00 | 0.00 | 0.00 | 100 | 1015.6 |
| 20260902202003 | 85 | 136 | 2.0 | 9.0 | 0.00 | 0.00 | 0.00 | 100 | 1015.6 |
| 20260902201504 | 85 | 89 | 2.0 | 8.0 | 0.00 | 0.00 | 0.00 | 100 | 1015.6 |
| 20260902201003 | 85 | 113 | 2.0 | 8.0 | 0.00 | 0.00 | 0.00 | 100 | 1015.5 |
| 20260902200503 | 85 | 90 | 3.0 | 9.0 | 0.00 | 0.00 | 0.00 | 100 | 1015.6 |
| 20260902200006 | 85 | 76 | 2.0 | 11.0 | 0.00 | 0.00 | 0.00 | 100 | 1015.7 |
| 20260902195502 | 85 | 111 | 3.0 | 11.0 | 0.00 | 0.00 | 0.00 | 100 | 1015.7 |
| 20260902195001 | 84 | 82 | 3.0 | 8.0 | 0.00 | 0.00 | 0.00 | 100 | 1015.8 |
| 20260902194502 | 84 | 131 | 1.0 | 9.0 | 0.00 | 0.00 | 0.00 | 100 | 1015.9 |
| 20260902194007 | 84 | 128 | 2.0 | 10.0 | 0.00 | 0.00 | 0.00 | 100 | 1015.9 |
| 20260902193502 | 84 | 138 | 3.0 | 10.0 | 0.00 | 0.00 | 0.00 | 100 | 1016.0 |
| 20260902193101 | 85 | 107 | 3.0 | 7.0 | 0.00 | 0.00 | 0.00 | 100 | 1016.0 |
| 20260902192500 | 85 | 135 | 2.0 | 8.0 | 0.00 | 0.00 | 0.00 | 100 | 1016.1 |
| 20260902192059 | 85 | 151 | 4.0 | 8.0 | 0.00 | 0.00 | 0.00 | 100 | 1016.2 |
| 20260902191600 | 85 | 126 | 2.0 | 9.0 | 0.00 | 0.00 | 0.00 | 100 | 1016.3 |
| 20260902191059 | 85 | 132 | 4.0 | 9.0 | 0.00 | 0.00 | 0.00 | 100 | 1016.3 |
| 20260902190559 | 86 | 113 | 2.0 | 8.0 | 0.00 | 0.00 | 0.00 | 100 | 1016.3 |
| 20260902190058 | 85 | 125 | 3.0 | 9.0 | 0.00 | 0.00 | 0.00 | 100 | 1016.3 |
| 20260902185557 | 85 | 128 | 3.0 | 10.0 | 0.00 | 0.00 | 0.00 | 100 | 1016.4 |
| 20260902185057 | 85 | 169 | 4.0 | 10.0 | 0.00 | 0.00 | 0.00 | 100 | 1016.4 |
| 20260902184601 | 85 | 131 | 1.0 | 7.0 | 0.00 | 0.00 | 0.00 | 100 | 1016.4 |
| 20260902184057 | 85 | 153 | 2.0 | 7.0 | 0.00 | 0.00 | 0.00 | 100 | 1016.4 |
| 20260902183557 | 84 | 132 | 2.0 | 6.0 | 0.00 | 0.00 | 0.00 | 100 | 1016.5 |
| 20260902183110 | 84 | 119 | 1.0 | 8.0 | 0.00 | 0.00 | 0.00 | 100 | 1016.5 |
| 20260902182556 | 83 | 113 | 1.0 | 8.0 | 0.00 | 0.00 | 0.00 | 100 | 1016.5 |
| 20260902182055 | 83 | 116 | 2.0 | 9.0 | 0.00 | 0.00 | 0.00 | 100 | 1016.6 |
| 20260902181555 | 83 | 112 | 3.0 | 9.0 | 0.00 | 0.00 | 0.00 | 100 | 1016.7 |
| 20260902181055 | 83 | 108 | 1.0 | 8.0 | 0.00 | 0.00 | 0.00 | 100 | 1016.7 |
| 20260902180554 | 83 | 130 | 3.0 | 9.0 | 0.00 | 0.00 | 0.00 | 100 | 1016.7 |
| 20260902180055 | 82 | 53 | 3.0 | 9.0 | 0.00 | 0.00 | 0.00 | 100 | 1016.8 |
| 20260902175557 | 83 | 90 | 2.0 | 8.0 | 0.00 | 0.00 | 0.00 | 100 | 1016.8 |
| 20260902175054 | 83 | 130 | 2.0 | 7.0 | 0.00 | 0.00 | 0.00 | 100 | 1016.8 |
| 20260902174604 | 83 | 107 | 0.0 | 5.0 | 0.00 | 0.00 | 0.00 | 100 | 1016.8 |
| 20260902174058 | 83 | 112 | 1.0 | 4.0 | 0.00 | 0.00 | 0.00 | 100 | 1016.8 |
| 20260902173554 | 83 | 113 | 1.0 | 6.0 | 0.00 | 0.00 | 0.00 | 100 | 1016.9 |
| 20260902173053 | 83 | 119 | 1.0 | 6.0 | 0.00 | 0.00 | 0.00 | 100 | 1016.9 |
| 20260902172554 | 83 | 124 | 1.0 | 6.0 | 0.00 | 0.00 | 0.00 | 100 | 1017.0 |
| 20260902172053 | 83 | 123 | 0.0 | 4.0 | 0.00 | 0.00 | 0.00 | 100 | 1017.0 |
| 20260902171601 | 83 | 79 | 0.0 | 4.0 | 0.00 | 0.00 | 0.00 | 100 | 1017.1 |
| 20260902171054 | 83 | 118 | 1.0 | 4.0 | 0.00 | 0.00 | 0.00 | 100 | 1017.1 |
| 20260902170552 | 83 | 109 | 0.0 | 4.0 | 0.00 | 0.00 | 0.00 | 100 | 1017.2 |
| 20260902170052 | 83 | 117 | 1.0 | 4.0 | 0.00 | 0.00 | 0.00 | 100 | 1017.2 |
| 20260902165552 | 84 | 115 | 1.0 | 4.0 | 0.00 | 0.00 | 0.00 | 100 | 1017.3 |
| 20260902165052 | 84 | 88 | 0.0 | 3.0 | 0.00 | 0.00 | 0.00 | 100 | 1017.3 |
| 20260902164552 | 84 | 74 | 0.0 | 4.0 | 0.00 | 0.00 | 0.00 | 100 | 1017.3 |
| 20260902164051 | 84 | 42 | 0.0 | 4.0 | 0.00 | 0.00 | 0.00 | 100 | 1017.3 |
| 20260902163551 | 84 | 59 | 0.0 | 3.0 | 0.00 | 0.00 | 0.00 | 100 | 1017.5 |
| 20260902163105 | 84 | 80 | 0.0 | 5.0 | 0.00 | 0.00 | 0.00 | 100 | 1017.5 |
| 20260902162553 | 85 | 63 | 1.0 | 6.0 | 0.00 | 0.00 | 0.00 | 100 | 1017.7 |
| 20260902162050 | 85 | 355 | 2.0 | 6.0 | 0.00 | 0.00 | 0.00 | 100 | 1017.8 |
| 20260902161550 | 85 | 15 | 1.0 | 5.0 | 0.00 | 0.00 | 0.00 | 100 | 1017.9 |
| 20260902161052 | 85 | 40 | 1.0 | 5.0 | 0.00 | 0.00 | 0.00 | 100 | 1017.7 |
| 20260902160549 | 85 | 152 | 1.0 | 5.0 | 0.00 | 0.00 | 0.00 | 100 | 1017.8 |
| 20260902160049 | 85 | 97 | 1.0 | 5.0 | 0.00 | 0.00 | 0.00 | 100 | 1017.7 |
| 20260902155549 | 85 | 5 | 1.0 | 5.0 | 0.00 | 0.00 | 0.00 | 100 | 1017.7 |
| 20260902155049 | 85 | 117 | 0.0 | 4.0 | 0.00 | 0.00 | 0.00 | 100 | 1017.9 |
| 20260902154549 | 85 | 94 | 0.0 | 4.0 | 0.00 | 0.00 | 0.00 | 100 | 1018.0 |
| 20260902154048 | 85 | 18 | 0.0 | 3.0 | 0.00 | 0.00 | 0.00 | 100 | 1018.0 |
| 20260902153547 | 85 | 25 | 1.0 | 4.0 | 0.00 | 0.00 | 0.00 | 100 | 1018.1 |
| 20260902153045 | 85 | 26 | 1.0 | 3.0 | 0.00 | 0.00 | 0.00 | 100 | 1018.1 |
| 20260902152543 | 85 | 113 | 0.0 | 2.0 | 0.00 | 0.00 | 0.00 | 100 | 1018.1 |
| 20260902152041 | 84 | 114 | 0.0 | 2.0 | 0.00 | 0.00 | 0.00 | 100 | 1018.1 |
| 20260902151551 | 84 | 71 | 0.0 | 2.0 | 0.00 | 0.00 | 0.00 | 100 | 1017.9 |
| 20260902151044 | 84 | 346 | 0.0 | 2.0 | 0.00 | 0.00 | 0.00 | 100 | 1017.7 |
| 20260902150541 | 84 | 346 | 0.0 | 2.0 | 0.00 | 0.00 | 0.00 | 100 | 1017.6 |
| 20260902150043 | 84 | 340 | 0.0 | 4.0 | 0.00 | 0.00 | 0.00 | 100 | 1017.6 |
| 20260902145540 | 83 | 355 | 0.0 | 4.0 | 0.00 | 0.00 | 0.00 | 100 | 1017.7 |
| 20260902145038 | 83 | 360 | 1.0 | 4.0 | 0.00 | 0.00 | 0.00 | 100 | 1017.8 |
| 20260902144543 | 83 | 5 | 1.0 | 4.0 | 0.00 | 0.00 | 0.00 | 100 | 1017.9 |
| 20260902144037 | 83 | 341 | 1.0 | 4.0 | 0.00 | 0.00 | 0.00 | 100 | 1017.8 |
| 20260902143540 | 83 | 5 | 0.0 | 3.0 | 0.00 | 0.00 | 0.00 | 100 | 1017.8 |
| 20260902143037 | 83 | 9 | 0.0 | 3.0 | 0.00 | 0.00 | 0.00 | 100 | 1017.6 |
| 20260902142537 | 83 | 355 | 0.0 | 3.0 | 0.00 | 0.00 | 0.00 | 100 | 1017.7 |
| 20260902142035 | 83 | 360 | 0.0 | 3.0 | 0.00 | 0.00 | 0.00 | 100 | 1017.6 |
| 20260902141538 | 82 | 355 | 0.0 | 4.0 | 0.00 | 0.00 | 0.00 | 100 | 1017.7 |
| 20260902141036 | 82 | 347 | 1.0 | 4.0 | 0.00 | 0.00 | 0.00 | 100 | 1017.7 |
| 20260902140536 | 82 | 5 | 2.0 | 4.0 | 0.00 | 0.00 | 0.00 | 100 | 1017.6 |
| 20260902140038 | 82 | 9 | 2.0 | 4.0 | 0.00 | 0.00 | 0.00 | 100 | 1017.8 |
| 20260902135535 | 83 | 328 | 0.0 | 2.0 | 0.00 | 0.00 | 0.00 | 100 | 1017.7 |
| 20260902135035 | 83 | 327 | 0.0 | 2.0 | 0.00 | 0.00 | 0.00 | 100 | 1017.6 |
| 20260902134534 | 83 | 313 | 0.0 | 2.0 | 0.00 | 0.00 | 0.00 | 100 | 1017.6 |
| 20260902134035 | 83 | 314 | 0.0 | 2.0 | 0.00 | 0.00 | 0.00 | 100 | 1017.5 |
| 20260902133536 | 83 | 336 | 0.0 | 3.0 | 0.00 | 0.00 | 0.00 | 100 | 1017.5 |
| 20260902133034 | 83 | 336 | 0.0 | 3.0 | 0.00 | 0.00 | 0.00 | 100 | 1017.4 |
| 20260902132533 | 83 | 344 | 0.0 | 3.0 | 0.00 | 0.00 | 0.00 | 100 | 1017.6 |
| 20260902132033 | 83 | 346 | 1.0 | 4.0 | 0.00 | 0.00 | 0.00 | 100 | 1017.5 |
| 20260902131533 | 83 | 348 | 0.0 | 4.0 | 0.00 | 0.00 | 0.00 | 100 | 1017.6 |
| 20260902131032 | 83 | 317 | 0.0 | 4.0 | 0.00 | 0.00 | 0.00 | 100 | 1017.5 |
| 20260902130532 | 83 | 345 | 1.0 | 4.0 | 0.00 | 0.00 | 0.00 | 100 | 1017.5 |
| 20260902130032 | 82 | 277 | 0.0 | 0.0 | 0.00 | 0.00 | 0.00 | 100 | 1017.5 |
| 20260902125529 | 82 | 290 | 0.0 | 0.0 | 0.00 | 0.00 | 0.00 | 100 | 1017.4 |
| 20260902125033 | 82 | 302 | 0.0 | 0.0 | 0.00 | 0.00 | 0.00 | 100 | 1017.4 |
| 20260902124527 | 81 | 299 | 0.0 | 0.0 | 0.00 | 0.00 | 0.00 | 100 | 1017.4 |
| 20260902124027 | 81 | 313 | 0.0 | 0.0 | 0.00 | 0.00 | 0.00 | 100 | 1017.3 |
| 20260902123526 | 81 | 313 | 0.0 | 0.0 | 0.00 | 0.00 | 0.00 | 100 | 1017.4 |
| 20260902123029 | 81 | 313 | 0.0 | 0.0 | 0.00 | 0.00 | 0.00 | 100 | 1017.3 |
| 20260902122525 | 80 | 313 | 0.0 | 0.0 | 0.00 | 0.00 | 0.00 | 100 | 1017.3 |
| 20260902122023 | 80 | 313 | 0.0 | 2.0 | 0.00 | 0.00 | 0.00 | 100 | 1017.2 |
| 20260902121522 | 80 | 313 | 0.0 | 2.0 | 0.00 | 0.00 | 0.00 | 100 | 1017.1 |
| 20260902121023 | 79 | 315 | 0.0 | 1.0 | 0.00 | 0.00 | 0.00 | 100 | 1017.0 |
| 20260902120523 | 79 | 315 | 0.0 | 0.0 | 0.00 | 0.00 | 0.00 | 100 | 1017.0 |
| 20260902120022 | 79 | 315 | 0.0 | 0.0 | 0.00 | 0.00 | 0.00 | 100 | 1017.0 |
| 20260902115522 | 79 | 315 | 0.0 | 0.0 | 0.00 | 0.00 | 0.00 | 100 | 1017.0 |
| 20260902115022 | 79 | 315 | 0.0 | 0.0 | 0.00 | 0.00 | 0.00 | 100 | 1016.9 |
| 20260902114522 | 78 | 315 | 0.0 | 0.0 | 0.00 | 0.00 | 0.00 | 100 | 1016.9 |
| 20260902114021 | 78 | 315 | 0.0 | 0.0 | 0.00 | 0.00 | 0.00 | 100 | 1016.9 |
| 20260902113521 | 78 | 315 | 0.0 | 0.0 | 0.00 | 0.00 | 0.00 | 100 | 1016.9 |